STARLINK-32680

Last updated on Thu Jan 23 2025 00:02:04 GMT+0000 (Coordinated Universal Time)

1 62423U 24249Q 25022.50001157 -.00063838 00000+0 -15329-2 0 9999 2 62423 42.9995 131.3731 0001561 259.7516 74.0541 15.40716282 4858
UTC large
Height (km)
Speed (km/s)
/
Latitude / Longitude
Inclination (degrees)
Orbital Period (minutes)
Azimuth
Elevation
Range (km)
Doppler Factor

Next 0 passes for location: London (51.5072 / 0.1276)

Sorry there are no passes over London.